Location: Góry Miechowskie
(50.3599°N, 20.1803°E)
Time: 20:39:25
(UTC+00:00)

Cosmos 2219 - Pass Details

Date: 22 September 2024
Orbit: 831 x 860 km, 71.1° (Epoch: 13 October)

Event Time Altitude Azimuth Distance (km) Brightness Sun altitude
Rises 03:12:55 0° 196° (SSW) 3,393 6.0 -12.3°
Reaches altitude 10° 03:15:22 10° 194° (SSW) 2,466 5.3 -12.0°
Maximum altitude 03:20:57 64° 114° (ESE) 941 3.7 -11.1°
Drops below altitude 10° 03:26:38 10° 34° (NE) 2,501 6.4 -10.2°
Sets 03:29:07 0° 31° (NNE) 3,444 7.1 -9.8°
